TimePST,TemperatureF,Dew PointF,Humidity,Sea Level PressureIn,VisibilityMPH,Wind Direction,Wind SpeedMPH,Gust SpeedMPH,PrecipitationIn,Events,Conditions,WindDirDegrees,DateUTC
2:55 AM,44.6,15.8,31,30.17,10.0,NW,9.2,-,N/A,,Clear,310,2012-11-11 10:55:00
4:59 AM,38.5,16.5,41,30.23,10.0,Variable,1.2,-,N/A,,Clear,0,2012-11-11 12:59:00
6:58 AM,37.2,17.8,45,30.31,10.0,East,4.6,-,N/A,,Clear,80,2012-11-11 14:58:00
7:58 AM,41.7,19.6,41,30.33,10.0,East,5.8,-,N/A,,Clear,80,2012-11-11 15:58:00
8:58 AM,47.1,18.1,32,30.35,10.0,NE,12.7,-,N/A,,Clear,40,2012-11-11 16:58:00
9:58 AM,48.9,16.5,28,30.36,10.0,North,9.2,-,N/A,,Clear,10,2012-11-11 17:58:00
10:58 AM,50.7,16.3,26,30.36,10.0,West,5.8,-,N/A,,Clear,280,2012-11-11 18:58:00
11:58 AM,50.9,14.5,24,30.35,10.0,West,5.8,-,N/A,,Clear,280,2012-11-11 19:58:00
12:58 PM,51.1,14.7,24,30.34,10.0,South,4.6,-,N/A,,Clear,170,2012-11-11 20:58:00
1:58 PM,52.5,14.9,23,30.33,10.0,SE,2.3,-,N/A,,Clear,130,2012-11-11 21:58:00
2:58 PM,53.4,12.4,20,30.33,10.0,WNW,1.2,-,N/A,,Clear,300,2012-11-11 22:58:00
3:58 PM,54.1,9.9,17,30.35,10.0,ENE,4.6,-,N/A,,Clear,60,2012-11-11 23:58:00
4:58 PM,50.7,9.0,19,30.34,10.0,NE,6.9,-,N/A,,Clear,40,2012-11-12 00:58:00
5:58 PM,47.1,9.1,21,30.39,10.0,ENE,4.6,-,N/A,,Clear,60,2012-11-12 01:58:00
6:58 PM,45.1,8.6,23,30.40,10.0,NE,8.1,-,N/A,,Clear,50,2012-11-12 02:58:00
7:58 PM,44.6,9.0,23,30.40,10.0,ENE,6.9,-,N/A,,Clear,60,2012-11-12 03:58:00
8:58 PM,41.4,8.1,25,30.41,10.0,NE,4.6,-,N/A,,Clear,50,2012-11-12 04:58:00
9:58 PM,41.7,7.3,24,30.43,10.0,NNE,4.6,-,N/A,,Clear,30,2012-11-12 05:58:00
10:58 PM,38.7,7.7,28,30.44,10.0,Calm,Calm,-,N/A,,Clear,0,2012-11-12 06:58:00
11:58 PM,36.1,8.4,32,30.44,10.0,East,3.5,-,N/A,,Clear,80,2012-11-12 07:58:00